SCP
0 0 0 0 0 0 0 0 0 0 0 0 0 0 0 0 0 0 0 0 -0 0 0 0 0 0 0 0 0 0 0 0 0 0 0 0 0 0 0 0 0 0 0 0
0 0 0 0 0 0 0 0 0 0 0 0 0 0 0 0 0 0 -0 -0 -0 0 0 0 0 0 0 0 0 0 0 0 0 0 0 0 0 0 0 0 0 0 0 0
0 0 0 0 0 0 0 0 0 0 0 0 0 0 0 0 0 -0 -0 -0 0 0 0 0 0 0 0 0 0 0 0 0 0 0 0 0 0 0 0 0 0 0 0 0
0 0 0 0 0 0 0 0 0 0 0 0 0 0 0 0 0 -0 -0 -0 0 0 0 0 0 0 0 0 0 0 0 0 0 0 0 0 0 0 0 0 0 0 0 0
0 0 0 0 0 0 0 0 0 0 0 0 0 0 0 0 0 0 -0 0 0 0 0 0 0 0 0 0 0 0 0 0 0 0 0 0 0 0 0 0 0 0 0 0
0 0 0 0 0 0 0 0 0 0 0 0 0 0 0 0 0 0 -0 0 0 0 0 0 0 0 0 0 0 0 0 0 0 0 0 0 0 0 0 0 0 0 0 0
0 0 0 0 0 0 0 -0 0 0 0 0 0 0 0 0 0 0 0 0 0 0 0 0 0 0 0 0 0 0 0 0 0 0 0 0 0 0 0 0 0 0 0 0
0 0 0 0 0 0 0 0 0 0 0 0 0 0 0 0 0 0 0 0 0 0 0 0 0 0 0 0 0 0 0 0 0 0 0 0 0 0 0 0 0 0 0 0
0 0 0 0 0 0 0 0 0 0 0 0 0 0 0 0 0 0 0 0 0 0 0 0 0 0 0 0 0 0 0 0 0 0 0 0 0 0 0 0 0 0 0 0
0 0 0 0 0 0 0 0 0 0 0 0 0 0 0 0 0 0 0 0 0 0 0 0 0 0 0 0 0 0 0 0 0 0 0 0 0 0 0 0 0 0 0 0
0 0 0 0 0 0 0 0 0 0 0 0 0 0 0 0 0 0 0 0 0 0 0 0 0 0 0 0 0 0 0 0 0 0 0 0 0 0 0 0 0 0 0 0
0 0 0 0 0 0 0 0 0 0 0 0 0 0 0 0 0 0 0 0 0 0 0 0 0 0 0 0 0 0 0 0 0 0 0 0 0 0 0 0 0 0 0 0
0 0 0 0 0 0 0 0 0 0 0 0 0 0 0 0 0 0 0 0 0 0 0 0 0 0 0 0 0 0 0 0 0 0 0 0 0 0 0 0 0 0 0 0
0 0 0 0 0 0 0 0 0 0 0 0 0 0 0 0 0 0 0 0 0 0 0 0 0 0 0 0 0 0 0 0 0 0 0 0 0 0 0 0 0 0 0 0
0 0 0 0 0 0 0 0 0 0 0 0 0 0 0 0 0 0 0 0 0 0 0 0 0 0 0 0 0 0 0 0 0 0 0 0 0 0 0 0 0 0 0 0
0 0 0 0 0 0 0 0 0 0 0 0 0 0 0 0 0 0 0 0 0 0 0 0 0 0 0 0 0 0 0 0 0 0 0 0 0 0 0 0 0 0 0 0
0 0 0 0 0 0 0 0 0 0 0 0 0 0 0 0 0 0 0 0 0 0 0 0 0 0 0 0 0 0 0 0 0 0 0 0 0 0 0 0 0 0 0 0
0 0 0 0 0 0 0 0 0 0 0 0 0 0 0 0 0 0 0 0 0 0 0 0 0 0 0 0 0 0 0 0 0 0 0 0 0 0 0 0 0 0 0 0
0 0 0 0 0 0 0 0 0 0 0 0 0 0 0 0 0 0 0 0 0 0 0 0 0 0 0 0 0 0 0 0 0 0 0 0 0 0 0 0 0 0 0 0
0 0 0 0 0 0 0 0 0 0 0 0 0 0 0 0 0 0 0 0 0 0 0 0 0 0 0 0 0 0 0 0 0 0 0 0 0 0 0 0 0 0 0 0
0 0 0 0 0 0 0 0 0 0 0 0 0 0 0 0 0 0 0 0 0 0 0 0 0 0 0 0 0 0 0 0 0 0 0 0 0 0 0 0 0 0 0 0
0 0 0 0 0 0 0 0 0 0 0 0 0 0 0 0 0 0 0 0 0 0 0 0 0 0 0 0 0 0 0 0 0 0 0 0 0 0 0 0 0 0 0 0
0 0 0 0 0 0 0 0 0 0 0 0 0 0 0 0 0 0 0 0 0 0 0 0 0 0 0 0 0 0 0 0 0 0 0 0 0 0 0 0 0 0 0 0
0 0 0 0 0 0 0 0 0 0 0 0 0 0 0 0 0 0 0 0 0 0 0 0 0 0 0 0 0 0 0 0 0 0 0 0 0 0 0 0 0 0 0 0
0 0 0 0 0 0 0 0 0 0 0 0 0 0 0 0 0 0 0 0 0 0 0 0 0 0 0 0 0 0 0 0 0 0 0 0 0 0 0 0 0 0 0 0
0 0 0 0 0 0 0 0 0 0 0 0 0 0 0 0 0 0 0 0 0 0 0 0 0 0 0 0 0 0 0 0 0 0 0 0 0 0 0 0 0 0 0 0
0 0 0 0 0 0 0 0 0 0 0 0 0 0 0 0 0 0 0 0 0 0 0 0 0 0 0 0 0 0 0 0 0 0 0 0 0 0 0 0 0 0 0 0
Wind_Speed_500mb
13 16 11 15 22 22 14 11 11 9 14 12 13 11 15 17 13 21 24 25 25 23 27 27 30 25 37 34 34 36 36 29 12 4 4 10 18 20 21 23 27 31 36 38
10 15 15 19 26 20 11 9 12 12 4 12 18 15 18 23 27 30 32 28 26 23 14 17 16 16 16 17 30 15 5 9 7 11 21 24 27 31 29 31 29 30 31 35
8 5 5 12 14 12 8 5 15 12 13 18 10 19 25 27 29 33 43 36 25 10 17 12 10 11 27 20 15 24 24 18 22 28 29 31 32 28 26 27 28 37 43 45
6 5 2 12 10 12 10 4 11 13 17 24 26 30 19 22 30 30 32 30 19 11 19 26 25 31 29 26 28 26 25 27 26 26 26 22 24 28 33 40 44 41 41 43
4 5 10 3 8 6 5 10 12 19 14 31 28 21 23 33 29 26 20 20 21 23 22 29 30 27 27 34 32 28 25 22 21 22 26 31 36 38 40 40 37 37 39 37
6 6 7 5 16 51 22 11 21 28 32 37 35 9 12 50 41 35 30 42 45 37 39 37 34 30 28 23 20 18 16 17 22 27 30 32 34 35 37 41 39 30 29 24
6 7 7 6 24 30 5 19 40 55 57 52 24 39 45 48 43 41 45 53 51 49 42 34 28 25 25 23 20 17 17 20 24 31 33 34 35 36 37 33 22 16 24 28
4 4 13 30 17 12 12 21 28 44 44 67 67 51 43 62 60 60 58 55 52 49 41 33 26 20 16 13 10 15 19 23 25 28 30 31 32 26 17 16 17 17 24 32
8 11 11 22 20 25 19 12 23 25 6 27 52 61 68 75 72 66 57 52 44 36 32 25 20 15 10 8 13 20 24 23 22 25 26 23 14 8 14 20 21 24 26 30
5 10 26 38 32 28 31 37 31 18 6 12 62 74 79 74 66 56 44 40 30 30 28 22 12 8 9 16 21 23 25 24 24 25 19 14 15 16 15 16 22 20 23 24
13 19 22 36 43 33 26 32 27 21 37 36 67 69 76 66 53 46 40 36 32 25 20 12 5 10 15 19 23 27 34 29 18 15 13 16 20 26 20 15 20 24 19 15
13 30 12 7 11 14 15 11 14 19 19 45 73 74 62 58 56 52 48 42 34 21 11 6 2 10 12 21 31 35 32 17 17 20 22 27 33 28 20 13 14 15 21 25
27 32 24 9 11 23 27 15 28 35 43 59 57 57 56 59 56 53 46 40 31 25 16 14 19 17 22 23 26 27 13 12 21 30 40 26 18 28 24 15 15 13 23 28
30 20 13 26 15 32 40 36 37 40 42 47 52 55 59 56 49 43 33 19 10 7 9 13 19 14 14 10 19 17 15 20 20 25 33 25 29 31 36 29 20 17 31 41
10 14 15 8 24 39 43 54 50 49 48 49 45 44 38 41 29 21 13 8 7 10 10 6 6 12 17 19 16 20 23 27 24 26 31 26 27 34 38 35 23 29 39 34
8 7 29 38 46 44 52 47 49 48 42 42 39 34 27 7 6 0 4 7 12 14 9 8 7 5 11 21 25 26 32 41 27 29 28 24 33 30 42 33 36 37 33 24
43 35 41 47 54 50 46 43 47 45 41 32 25 11 4 4 4 9 9 13 9 8 11 13 16 19 12 2 9 30 39 32 31 34 31 31 32 37 45 36 30 30 30 19
25 37 35 41 48 50 49 47 42 32 19 10 7 10 19 21 16 11 5 2 7 16 17 21 14 5 13 25 37 34 36 40 32 35 39 43 49 51 40 32 24 25 25 20
45 52 49 46 40 38 36 31 23 18 18 21 28 26 19 13 11 5 10 15 17 23 28 18 16 12 25 37 29 32 33 35 43 43 44 45 38 35 30 18 23 20 22 24
43 42 38 37 33 28 36 39 37 34 30 26 18 16 11 6 12 15 15 19 20 25 22 9 14 25 27 25 29 31 37 43 39 35 34 33 28 36 23 21 25 27 29 26
43 45 45 41 41 37 38 37 33 27 19 16 11 7 5 10 20 13 19 23 23 16 8 23 20 22 32 25 27 40 36 38 28 31 27 38 30 29 25 30 30 31 32 34
42 41 39 34 29 27 23 20 18 18 15 10 9 8 14 14 15 18 18 13 19 6 9 16 28 22 23 27 33 36 37 27 24 30 33 23 24 30 30 31 33 37 37 33
36 33 29 23 20 18 15 13 13 13 13 14 19 19 19 21 9 7 16 17 16 18 26 21 22 27 22 30 31 22 24 29 26 23 22 26 32 36 37 38 36 32 32 37
26 23 19 21 21 18 20 15 10 12 14 14 15 19 16 12 13 11 13 11 8 11 15 19 22 18 23 23 28 28 23 25 30 36 41 41 39 37 35 36 37 37 40 43
20 22 19 12 16 19 12 14 14 12 12 13 10 14 21 16 13 10 12 16 21 27 29 27 22 26 33 33 34 37 40 42 42 42 40 39 45 46 41 39 37 39 41 41
16 12 15 14 12 15 22 13 17 13 15 14 20 23 19 20 25 24 19 22 29 35 37 41 39 36 33 33 35 36 34 35 35 35 36 34 37 41 39 40 40 43 40 37
13 13 7 7 13 21 14 18 14 11 14 17 16 16 20 23 25 31 38 35 33 40 34 28 31 31 35 37 36 41 41 42 40 39 43 42 43 44 45 41 38 36 36 33
Wind_Direction_500mb
239 248 251 277 285 287 198 196 165 210 185 179 192 201 191 185 194 202 189 163 150 129 117 142 174 179 200 210 205 186 182 186 202 201 309 322 324 315 323 325 320 312 308 303
249 233 260 287 285 288 165 132 88 127 159 176 168 170 166 168 166 178 178 157 149 156 131 155 148 140 165 158 147 130 196 129 166 239 254 265 270 272 279 282 284 284 285 287
248 258 310 305 257 177 114 130 144 179 203 160 173 177 190 172 175 172 175 175 168 177 234 252 212 154 153 163 173 172 183 182 217 233 245 257 262 264 260 270 283 289 293 294
227 352 249 247 354 134 122 141 115 97 154 172 178 188 187 182 184 191 192 191 175 183 200 165 168 186 180 176 190 200 203 208 219 231 237 242 253 269 279 286 292 295 296 296
154 197 273 201 25 9 119 241 189 154 175 178 170 169 210 198 188 184 198 199 204 206 197 182 179 182 197 198 198 198 204 221 241 259 277 289 290 291 294 300 310 314 312 309
157 186 236 200 31 55 51 326 210 177 182 175 164 169 236 199 201 206 196 183 185 197 187 190 184 185 193 203 217 230 248 269 282 290 292 293 297 301 303 305 306 305 309 306
202 203 286 133 110 97 75 250 196 193 188 178 187 198 197 189 194 195 187 184 189 186 186 189 194 211 226 232 238 256 277 288 296 299 300 300 303 307 308 309 310 277 283 300
137 144 258 177 169 172 215 297 196 202 206 195 200 206 194 185 181 178 172 174 180 187 196 203 214 231 231 240 277 296 302 305 304 301 306 311 311 309 311 311 305 305 306 319
173 225 270 179 228 223 216 230 197 199 357 223 202 186 180 170 170 175 175 176 181 191 193 206 219 231 250 286 312 321 322 320 313 311 320 323 317 337 342 338 330 325 331 334
104 234 216 215 226 244 249 247 239 219 117 323 184 174 173 169 171 172 176 180 194 202 206 204 222 259 312 337 338 342 341 333 322 321 327 318 308 325 336 340 329 328 328 329
261 285 274 244 235 262 266 254 245 231 212 204 191 173 165 157 161 168 175 178 183 189 182 183 249 306 330 331 330 335 340 339 340 332 331 324 326 325 319 324 326 327 322 333
221 237 197 220 246 208 227 198 235 258 221 168 181 165 167 168 167 166 164 163 156 153 162 168 262 311 309 308 320 338 338 351 336 336 331 322 320 316 294 299 309 323 322 334
250 269 224 239 208 189 157 140 161 159 158 159 161 169 170 160 162 164 164 165 166 170 192 233 233 236 286 294 312 330 2 351 332 332 336 334 335 331 327 333 323 300 320 320
249 213 226 225 207 172 160 161 159 147 146 151 157 159 160 157 155 157 153 161 203 234 220 215 271 278 275 287 317 342 342 338 324 324 333 320 339 345 329 326 318 311 323 321
94 166 48 98 134 147 160 156 139 130 137 140 145 147 152 150 148 151 156 168 189 250 287 328 306 257 282 300 312 307 314 326 313 304 312 305 326 332 329 329 304 318 322 325
13 166 132 142 144 154 156 151 144 136 140 138 140 141 133 79 97 57 2 354 24 23 41 31 26 344 281 287 280 283 310 315 303 305 315 311 313 317 324 321 326 319 324 329
128 108 141 136 142 140 145 143 143 138 131 122 112 102 100 225 278 4 33 32 38 13 336 321 307 300 304 342 273 299 311 309 297 307 304 315 316 312 314 313 314 318 319 317
108 135 138 133 130 125 119 115 112 111 113 123 115 78 69 74 73 68 61 46 336 323 312 316 325 267 290 304 313 315 319 317 312 304 300 297 299 303 303 316 316 318 313 309
102 108 109 109 112 114 117 117 109 88 70 71 81 79 72 74 74 45 328 322 329 332 330 294 292 292 310 314 312 306 305 311 314 312 307 308 308 311 311 315 321 320 314 310
101 100 103 102 97 90 94 90 86 80 80 85 81 79 66 40 334 322 322 327 326 323 326 289 299 312 302 306 312 312 316 323 320 318 325 326 326 316 311 315 300 299 298 295
94 93 91 88 88 87 84 84 81 77 74 78 69 26 353 342 338 341 332 333 328 333 320 323 303 296 309 308 312 316 315 323 322 323 315 310 309 316 319 305 305 306 302 302
96 92 88 83 83 82 85 85 62 46 47 45 14 324 314 310 340 343 333 353 352 282 268 294 311 308 305 299 304 308 309 310 311 314 317 314 309 303 305 303 305 308 307 301
96 92 80 80 82 77 80 71 44 21 6 337 329 324 306 300 308 1 342 338 333 316 325 328 310 313 294 298 313 323 315 309 312 312 306 307 306 305 301 304 308 306 304 301
110 105 73 84 75 74 76 75 33 39 23 12 42 73 58 20 4 350 323 319 329 326 320 312 313 313 320 319 306 302 293 295 298 296 300 304 300 302 303 306 308 303 303 305
103 91 66 74 97 86 47 10 357 41 23 32 45 22 16 11 357 346 325 314 305 308 309 305 298 304 313 311 307 307 308 308 309 310 307 302 308 309 305 302 300 302 308 309
107 86 103 100 80 42 19 36 25 29 348 344 339 351 358 341 331 330 326 320 316 317 320 325 323 321 321 324 323 323 322 318 319 315 315 312 320 318 314 308 305 307 308 309
115 99 79 57 31 16 35 11 20 67 22 11 355 331 324 327 326 324 323 324 326 326 329 338 341 334 326 326 322 320 311 308 302 303 307 306 307 310 308 309 307 306 304 302
Wind_Speed_850mb
13 16 11 15 22 22 14 11 11 9 14 12 13 11 15 17 13 21 24 25 25 23 27 27 30 25 37 34 34 36 36 29 12 4 4 10 18 20 21 23 27 31 36 38
10 15 15 19 26 20 11 9 12 12 4 12 18 15 18 23 27 30 32 28 26 23 14 17 16 16 16 17 30 15 5 9 7 11 21 24 27 31 29 31 29 30 31 35
8 5 5 12 14 12 8 5 15 12 13 18 10 19 25 27 29 33 43 36 25 10 17 12 10 11 27 20 15 24 24 18 22 28 29 31 32 28 26 27 28 37 43 45
6 5 2 12 10 12 10 4 11 13 17 24 26 30 19 22 30 30 32 30 19 11 19 26 25 31 29 26 28 26 25 27 26 26 26 22 24 28 33 40 44 41 41 43
4 5 10 3 8 6 5 10 12 19 14 31 28 21 23 33 29 26 20 20 21 23 22 29 30 27 27 34 32 28 25 22 21 22 26 31 36 38 40 40 37 37 39 37
6 6 7 5 16 51 22 11 21 28 32 37 35 9 12 50 41 35 30 42 45 37 39 37 34 30 28 23 20 18 16 17 22 27 30 32 34 35 37 41 39 30 29 24
6 7 7 6 24 30 5 19 40 55 57 52 24 39 45 48 43 41 45 53 51 49 42 34 28 25 25 23 20 17 17 20 24 31 33 34 35 36 37 33 22 16 24 28
4 4 13 30 17 12 12 21 28 44 44 67 67 51 43 62 60 60 58 55 52 49 41 33 26 20 16 13 10 15 19 23 25 28 30 31 32 26 17 16 17 17 24 32
8 11 11 22 20 25 19 12 23 25 6 27 52 61 68 75 72 66 57 52 44 36 32 25 20 15 10 8 13 20 24 23 22 25 26 23 14 8 14 20 21 24 26 30
5 10 26 38 32 28 31 37 31 18 6 12 62 74 79 74 66 56 44 40 30 30 28 22 12 8 9 16 21 23 25 24 24 25 19 14 15 16 15 16 22 20 23 24
13 19 22 36 43 33 26 32 27 21 37 36 67 69 76 66 53 46 40 36 32 25 20 12 5 10 15 19 23 27 34 29 18 15 13 16 20 26 20 15 20 24 19 15
13 30 12 7 11 14 15 11 14 19 19 45 73 74 62 58 56 52 48 42 34 21 11 6 2 10 12 21 31 35 32 17 17 20 22 27 33 28 20 13 14 15 21 25
27 32 24 9 11 23 27 15 28 35 43 59 57 57 56 59 56 53 46 40 31 25 16 14 19 17 22 23 26 27 13 12 21 30 40 26 18 28 24 15 15 13 23 28
30 20 13 26 15 32 40 36 37 40 42 47 52 55 59 56 49 43 33 19 10 7 9 13 19 14 14 10 19 17 15 20 20 25 33 25 29 31 36 29 20 17 31 41
10 14 15 8 24 39 43 54 50 49 48 49 45 44 38 41 29 21 13 8 7 10 10 6 6 12 17 19 16 20 23 27 24 26 31 26 27 34 38 35 23 29 39 34
8 7 29 38 46 44 52 47 49 48 42 42 39 34 27 7 6 0 4 7 12 14 9 8 7 5 11 21 25 26 32 41 27 29 28 24 33 30 42 33 36 37 33 24
43 35 41 47 54 50 46 43 47 45 41 32 25 11 4 4 4 9 9 13 9 8 11 13 16 19 12 2 9 30 39 32 31 34 31 31 32 37 45 36 30 30 30 19
25 37 35 41 48 50 49 47 42 32 19 10 7 10 19 21 16 11 5 2 7 16 17 21 14 5 13 25 37 34 36 40 32 35 39 43 49 51 40 32 24 25 25 20
45 52 49 46 40 38 36 31 23 18 18 21 28 26 19 13 11 5 10 15 17 23 28 18 16 12 25 37 29 32 33 35 43 43 44 45 38 35 30 18 23 20 22 24
43 42 38 37 33 28 36 39 37 34 30 26 18 16 11 6 12 15 15 19 20 25 22 9 14 25 27 25 29 31 37 43 39 35 34 33 28 36 23 21 25 27 29 26
43 45 45 41 41 37 38 37 33 27 19 16 11 7 5 10 20 13 19 23 23 16 8 23 20 22 32 25 27 40 36 38 28 31 27 38 30 29 25 30 30 31 32 34
42 41 39 34 29 27 23 20 18 18 15 10 9 8 14 14 15 18 18 13 19 6 9 16 28 22 23 27 33 36 37 27 24 30 33 23 24 30 30 31 33 37 37 33
36 33 29 23 20 18 15 13 13 13 13 14 19 19 19 21 9 7 16 17 16 18 26 21 22 27 22 30 31 22 24 29 26 23 22 26 32 36 37 38 36 32 32 37
26 23 19 21 21 18 20 15 10 12 14 14 15 19 16 12 13 11 13 11 8 11 15 19 22 18 23 23 28 28 23 25 30 36 41 41 39 37 35 36 37 37 40 43
20 22 19 12 16 19 12 14 14 12 12 13 10 14 21 16 13 10 12 16 21 27 29 27 22 26 33 33 34 37 40 42 42 42 40 39 45 46 41 39 37 39 41 41
16 12 15 14 12 15 22 13 17 13 15 14 20 23 19 20 25 24 19 22 29 35 37 41 39 36 33 33 35 36 34 35 35 35 36 34 37 41 39 40 40 43 40 37
13 13 7 7 13 21 14 18 14 11 14 17 16 16 20 23 25 31 38 35 33 40 34 28 31 31 35 37 36 41 41 42 40 39 43 42 43 44 45 41 38 36 36 33
Wind_Direction_850mb
239 248 251 277 285 287 198 196 165 210 185 179 192 201 191 185 194 202 189 163 150 129 117 142 174 179 200 210 205 186 182 186 202 201 309 322 324 315 323 325 320 312 308 303
249 233 260 287 285 288 165 132 88 127 159 176 168 170 166 168 166 178 178 157 149 156 131 155 148 140 165 158 147 130 196 129 166 239 254 265 270 272 279 282 284 284 285 287
248 258 310 305 257 177 114 130 144 179 203 160 173 177 190 172 175 172 175 175 168 177 234 252 212 154 153 163 173 172 183 182 217 233 245 257 262 264 260 270 283 289 293 294
227 352 249 247 354 134 122 141 115 97 154 172 178 188 187 182 184 191 192 191 175 183 200 165 168 186 180 176 190 200 203 208 219 231 237 242 253 269 279 286 292 295 296 296
154 197 273 201 25 9 119 241 189 154 175 178 170 169 210 198 188 184 198 199 204 206 197 182 179 182 197 198 198 198 204 221 241 259 277 289 290 291 294 300 310 314 312 309
157 186 236 200 31 55 51 326 210 177 182 175 164 169 236 199 201 206 196 183 185 197 187 190 184 185 193 203 217 230 248 269 282 290 292 293 297 301 303 305 306 305 309 306
202 203 286 133 110 97 75 250 196 193 188 178 187 198 197 189 194 195 187 184 189 186 186 189 194 211 226 232 238 256 277 288 296 299 300 300 303 307 308 309 310 277 283 300
137 144 258 177 169 172 215 297 196 202 206 195 200 206 194 185 181 178 172 174 180 187 196 203 214 231 231 240 277 296 302 305 304 301 306 311 311 309 311 311 305 305 306 319
173 225 270 179 228 223 216 230 197 199 357 223 202 186 180 170 170 175 175 176 181 191 193 206 219 231 250 286 312 321 322 320 313 311 320 323 317 337 342 338 330 325 331 334
104 234 216 215 226 244 249 247 239 219 117 323 184 174 173 169 171 172 176 180 194 202 206 204 222 259 312 337 338 342 341 333 322 321 327 318 308 325 336 340 329 328 328 329
261 285 274 244 235 262 266 254 245 231 212 204 191 173 165 157 161 168 175 178 183 189 182 183 249 306 330 331 330 335 340 339 340 332 331 324 326 325 319 324 326 327 322 333
221 237 197 220 246 208 227 198 235 258 221 168 181 165 167 168 167 166 164 163 156 153 162 168 262 311 309 308 320 338 338 351 336 336 331 322 320 316 294 299 309 323 322 334
250 269 224 239 208 189 157 140 161 159 158 159 161 169 170 160 162 164 164 165 166 170 192 233 233 236 286 294 312 330 2 351 332 332 336 334 335 331 327 333 323 300 320 320
249 213 226 225 207 172 160 161 159 147 146 151 157 159 160 157 155 157 153 161 203 234 220 215 271 278 275 287 317 342 342 338 324 324 333 320 339 345 329 326 318 311 323 321
94 166 48 98 134 147 160 156 139 130 137 140 145 147 152 150 148 151 156 168 189 250 287 328 306 257 282 300 312 307 314 326 313 304 312 305 326 332 329 329 304 318 322 325
13 166 132 142 144 154 156 151 144 136 140 138 140 141 133 79 97 57 2 354 24 23 41 31 26 344 281 287 280 283 310 315 303 305 315 311 313 317 324 321 326 319 324 329
128 108 141 136 142 140 145 143 143 138 131 122 112 102 100 225 278 4 33 32 38 13 336 321 307 300 304 342 273 299 311 309 297 307 304 315 316 312 314 313 314 318 319 317
108 135 138 133 130 125 119 115 112 111 113 123 115 78 69 74 73 68 61 46 336 323 312 316 325 267 290 304 313 315 319 317 312 304 300 297 299 303 303 316 316 318 313 309
102 108 109 109 112 114 117 117 109 88 70 71 81 79 72 74 74 45 328 322 329 332 330 294 292 292 310 314 312 306 305 311 314 312 307 308 308 311 311 315 321 320 314 310
101 100 103 102 97 90 94 90 86 80 80 85 81 79 66 40 334 322 322 327 326 323 326 289 299 312 302 306 312 312 316 323 320 318 325 326 326 316 311 315 300 299 298 295
94 93 91 88 88 87 84 84 81 77 74 78 69 26 353 342 338 341 332 333 328 333 320 323 303 296 309 308 312 316 315 323 322 323 315 310 309 316 319 305 305 306 302 302
96 92 88 83 83 82 85 85 62 46 47 45 14 324 314 310 340 343 333 353 352 282 268 294 311 308 305 299 304 308 309 310 311 314 317 314 309 303 305 303 305 308 307 301
96 92 80 80 82 77 80 71 44 21 6 337 329 324 306 300 308 1 342 338 333 316 325 328 310 313 294 298 313 323 315 309 312 312 306 307 306 305 301 304 308 306 304 301
110 105 73 84 75 74 76 75 33 39 23 12 42 73 58 20 4 350 323 319 329 326 320 312 313 313 320 319 306 302 293 295 298 296 300 304 300 302 303 306 308 303 303 305
103 91 66 74 97 86 47 10 357 41 23 32 45 22 16 11 357 346 325 314 305 308 309 305 298 304 313 311 307 307 308 308 309 310 307 302 308 309 305 302 300 302 308 309
107 86 103 100 80 42 19 36 25 29 348 344 339 351 358 341 331 330 326 320 316 317 320 325 323 321 321 324 323 323 322 318 319 315 315 312 320 318 314 308 305 307 308 309
115 99 79 57 31 16 35 11 20 67 22 11 355 331 324 327 326 324 323 324 326 326 329 338 341 334 326 326 322 320 311 308 302 303 307 306 307 310 308 309 307 306 304 302